This is the latest recevied weather packets stored in our database for station/object WA6ODQ-13. If no packets are shown the sender has not sent any weather packets the latest 1 day(s).
| Time | Temp. | Humidity | Pressure | Rain* | Wind** | Luminosity | Snow |
|---|---|---|---|---|---|---|---|
| 1777994797 | 13.89° C | 92% | 1013 hPa | 0 mm | 0 m/s | 86 W/m² | - |
| 1777994492 | 13.89° C | 92% | 1013 hPa | 0 mm | 0 m/s | 98 W/m² | - |
| 1777994188 | 13.33° C | 91% | 1012.9 hPa | 0 mm | 0 m/s | 80 W/m² | - |
| 1777993886 | 13.33° C | 92% | 1012.7 hPa | 0 mm | 0 m/s | 61 W/m² | - |
| 1777993581 | 13.33° C | 92% | 1012.8 hPa | 0 mm | 0 m/s | 56 W/m² | - |
| 1777993279 | 12.78° C | 92% | 1012.4 hPa | 0 mm | 0 m/s | 42 W/m² | - |
| 1777992974 | 12.78° C | 92% | 1012.4 hPa | 0 mm | 0 m/s | 48 W/m² | - |
| 1777992673 | 12.78° C | 92% | 1012.4 hPa | 0 mm | 0 m/s | 38 W/m² | - |
| 1777992370 | 12.78° C | 92% | 1012.4 hPa | 0 mm | 0 m/s | 25 W/m² | - |
| 1777992068 | 12.78° C | 92% | 1012.4 hPa | 0 mm | 0 m/s | 22 W/m² | - |
| 1777991765 | 12.78° C | 92% | 1012.3 hPa | 0 mm | 0.45 m/s, 4° | 24 W/m² | - |
| 1777991462 | 12.78° C | 92% | 1012.4 hPa | 0 mm | 0 m/s | 20 W/m² | - |
| 1777991159 | 12.78° C | 92% | 1012.2 hPa | 0 mm | 0.45 m/s, 260° | 24 W/m² | - |
| 1777990856 | 12.78° C | 92% | 1012.2 hPa | 0 mm | 0.45 m/s, 234° | 25 W/m² | - |
| 1777990553 | 12.78° C | 93% | 1012.2 hPa | 0 mm | 0 m/s | 19 W/m² | - |
| 1777990250 | 12.22° C | 93% | 1012.1 hPa | 0 mm | 0 m/s | 14 W/m² | - |
| 1777989947 | 12.22° C | 93% | 1012.1 hPa | 0 mm | 0.45 m/s, 228° | 15 W/m² | - |
| 1777989644 | 12.22° C | 93% | 1011.9 hPa | 0 mm | 0 m/s | 12 W/m² | - |
| 1777989340 | 12.22° C | 95% | 1011.9 hPa | 0 mm | 0.45 m/s, 291° | 11 W/m² | - |
| 1777989037 | 12.22° C | 95% | 1011.9 hPa | 0 mm | 0.89 m/s, 182° | 10 W/m² | - |
| 1777988732 | 11.67° C | 97% | 1011.8 hPa | 0 mm | 0.89 m/s, 264° | 8 W/m² | - |
| 1777988430 | 11.67° C | 99% | 1011.9 hPa | 0 mm | 0.45 m/s, 335° | 8 W/m² | - |
| 1777988127 | 11.67° C | 99% | 1011.9 hPa | 0 mm | 0.45 m/s, 173° | 5 W/m² | - |
| 1777987832 | 11.67° C | 99% | 1011.8 hPa | 0 mm | 0.89 m/s, 148° | 4 W/m² | - |
| 1777987520 | 11.11° C | 99% | 1011.8 hPa | 0 mm | 0.45 m/s, 180° | 2 W/m² | - |
* Rain latest hour (hover to see other rain measurements)
** Current wind speed in m/s (hover to see current wind gust speed)